| time (UTC) | temp F | wind direction | speed MPH | gust MPH | rain 1hr in | rain 24hr in | rain mn in | humidity % | barometer mb |
| 20260503211004 | 61 | 233 | 18.0 | 22.0 | 0.00 | 0.00 | 0.00 | 34 | 1011.7 |
| 20260503205004 | 62 | 238 | 22.0 | 23.0 | 0.00 | 0.00 | 0.00 | 31 | 1011.9 |
| 20260503204005 | 62 | 240 | 26.0 | 30.0 | 0.00 | 0.00 | 0.00 | 31 | 1012.1 |
| 20260503203004 | 62 | 232 | 22.0 | 28.0 | 0.00 | 0.00 | 0.00 | 29 | 1012.0 |
| 20260503202004 | 62 | 238 | 17.0 | 21.0 | 0.00 | 0.00 | 0.00 | 33 | 1012.1 |
| 20260503201005 | 62 | 239 | 23.0 | 29.0 | 0.00 | 0.00 | 0.00 | 30 | 1012.4 |
| 20260503195005 | 64 | 221 | 17.0 | 26.0 | 0.00 | 0.00 | 0.00 | 29 | 1012.3 |
| 20260503194005 | 63 | 236 | 17.0 | 28.0 | 0.00 | 0.00 | 0.00 | 30 | 1012.4 |
| 20260503193004 | 63 | 228 | 13.0 | 28.0 | 0.00 | 0.00 | 0.00 | 31 | 1012.7 |
| 20260503192004 | 63 | 234 | 21.0 | 26.0 | 0.00 | 0.00 | 0.00 | 31 | 1012.7 |
| 20260503190004 | 62 | 223 | 17.0 | 23.0 | 0.00 | 0.00 | 0.00 | 30 | 1013.1 |
| 20260503185005 | 63 | 240 | 17.0 | 28.0 | 0.00 | 0.00 | 0.00 | 32 | 1013.2 |
| 20260503184004 | 63 | 236 | 22.0 | 22.0 | 0.00 | 0.00 | 0.00 | 29 | 1013.4 |
| 20260503183004 | 63 | 237 | 20.0 | 29.0 | 0.00 | 0.00 | 0.00 | 29 | 1013.4 |
| 20260503182005 | 62 | 240 | 20.0 | 23.0 | 0.00 | 0.00 | 0.00 | 29 | 1013.4 |
| 20260503181005 | 62 | 236 | 24.0 | 28.0 | 0.00 | 0.00 | 0.00 | 31 | 1013.5 |
| 20260503180005 | 62 | 232 | 17.0 | 26.0 | 0.00 | 0.00 | 0.00 | 32 | 1013.7 |
| 20260503175004 | 62 | 240 | 18.0 | 26.0 | 0.00 | 0.00 | 0.00 | 28 | 1014.0 |
| 20260503174006 | 62 | 238 | 21.0 | 29.0 | 0.00 | 0.00 | 0.00 | 29 | 1014.2 |
| 20260503173004 | 62 | 232 | 22.0 | 30.0 | 0.00 | 0.00 | 0.00 | 27 | 1014.2 |
| 20260503172005 | 62 | 236 | 21.0 | 28.0 | 0.00 | 0.00 | 0.00 | 32 | 1014.4 |
| 20260503151004 | 56 | 241 | 14.0 | 21.0 | 0.00 | 0.00 | 0.00 | 46 | 1015.7 |
| 20260502231006 | 48 | 244 | 0.0 | 3.0 | 0.00 | 0.00 | 0.00 | 41 | 1016.7 |
| 20260502230008 | 49 | 254 | 1.0 | 10.0 | 0.00 | 0.00 | 0.00 | 39 | 1016.8 |
| 20260502225005 | 49 | 258 | 2.0 | 7.0 | 0.00 | 0.00 | 0.00 | 40 | 1017.0 |
| 20260502224011 | 49 | 227 | 3.0 | 7.0 | 0.00 | 0.00 | 0.00 | 40 | 1016.9 |
| 20260502222006 | 49 | 224 | 6.0 | 7.0 | 0.00 | 0.00 | 0.00 | 40 | 1017.0 |
| 20260502221007 | 48 | 25 | 0.0 | 5.0 | 0.00 | 0.00 | 0.00 | 42 | 1017.2 |
| 20260502220010 | 48 | 246 | 2.0 | 6.0 | 0.00 | 0.00 | 0.00 | 42 | 1017.0 |
| 20260502215007 | 49 | 282 | 3.0 | 7.0 | 0.00 | 0.00 | 0.00 | 39 | 1017.1 |
| 20260502213031 | 49 | 307 | 3.0 | 6.0 | 0.00 | 0.00 | 0.00 | 40 | 1017.0 |
| 20260502212005 | 49 | 308 | 2.0 | 7.0 | 0.00 | 0.00 | 0.00 | 42 | 1017.1 |